[[{"header":{"parameterUnit":"m.s-1","parameterCategory":1,"la1":30.2991,"la2":30.254,"lo1":-89.0895,"lo2":-89.0444,"dy":0.0017,"dx":0.0017,"nx":28,"ny":28,"refTime":"2023-11-16T09:00:00:Z","depth":0,"parameterNumber":2,"parameterNumberName":"U-component_of_WINDS"},"data":[0,0,0,0,0,0,0,0,0,0,0,0,0,0,0,0,0,0,0,0,0,0,0,0,0,0,0,0,0,0,0,0,0,0,0,0,0,0,0,0,0,0,0,0,0,0,0,0,0,0,0,0,0,0,0,0,0,0,1.1647,1.1647,0,1.1666,1.1666,1.1666,1.165,1.1649,1.1648,1.1648,1.1666,1.1667,1.1668,0,0,0,0,0,0,0,0,0,0,0,0,0,1.1597,1.1598,1.1647,1.1647,1.1647,1.1666,1.1666,1.1666,1.165,1.1649,1.1648,1.1648,1.1665,1.1667,1.1668,0,0,0,0,0,0,0,0,0,0,0,0,0,1.1618,1.1599,1.1647,1.1642,1.1641,1.1665,1.1666,1.1666,1.165,1.1649,1.1648,1.1647,1.1665,1.1667,1.1668,1.1698,0,0,1.1673,1.1674,0,0,0,0,0,0,0,0,1.1616,1.1619,1.1642,1.1642,1.1642,1.1654,1.1655,1.1677,1.165,1.1647,1.1648,1.1647,1.1663,1.1664,1.167,1.1699,1.17,1.1673,1.1674,1.1675,1.1676,0,0,0,0,0,0,0,1.1615,1.1619,1.1654,1.1642,1.1642,1.1638,1.164,1.1659,1.166,1.1647,1.1646,1.1648,1.1662,1.1669,1.167,1.17,1.1673,1.1675,1.1676,1.1676,1.1756,1.1757,0,0,0,0,0,0,1.1614,1.1617,1.1654,1.1655,1.1626,1.164,1.1642,1.1651,1.166,1.166,1.1649,1.1647,1.1666,1.1668,1.1671,1.1707,1.1675,1.1677,1.1678,1.1755,1.1756,1.1757,0,0,0,0,0,0,1.1613,1.1618,1.1653,1.1636,1.164,1.1642,1.1652,1.1652,1.1658,1.1661,1.1661,1.1655,1.1666,1.1669,1.1692,1.1708,1.1677,1.1679,1.1753,1.1755,1.1757,1.178,0,0,0,0,0,0,1.1612,1.1617,1.1629,1.1636,1.1641,1.1674,1.1653,1.1653,1.1661,1.1659,1.1667,1.1668,1.1665,1.169,1.1694,1.171,1.168,1.1752,1.1754,1.1756,1.1778,1.1783,1.1786,0,0,0,0,0,1.161,1.1634,1.1629,1.1634,1.1655,1.1675,1.1677,1.1674,1.1663,1.1674,1.1676,1.1667,1.1706,1.1692,1.1696,1.1713,1.1751,1.1754,1.1756,1.1776,1.1782,1.1786,0,0,0,0,0,0,1.1628,1.1635,1.163,1.1657,1.1665,1.1672,1.1686,1.168,1.1691,1.1689,1.1684,1.1686,1.1711,1.1714,1.1699,1.1743,1.1726,1.173,1.174,1.1745,1.1749,1.1748,1.1681,0,0,0,0,0,1.1635,1.165,1.1655,1.1679,1.1684,1.1684,1.1692,1.169,1.1698,1.1701,1.1705,1.1713,1.1727,1.1737,1.1749,1.1779,1.178,1.1792,1.1796,1.18,1.1803,1.1819,1.1825,1.1766,1.1766,1.1766,0,0,1.1649,1.1655,1.1665,1.1683,1.1689,1.1705,1.1687,1.1705,1.1716,1.1704,1.1726,1.173,1.1738,1.1765,1.1777,1.1769,1.182,1.1803,1.1806,1.1807,1.1823,1.1828,1.1833,1.1767,1.1767,1.1767,0,0,1.1684,1.169,1.1711,1.1718,1.1728,1.1728,1.1733,1.1741,1.1743,1.1766,1.1757,1.1771,1.1795,1.1802,1.1809,1.1848,1.184,1.1852,1.1874,1.189,1.1895,1.1899,1.1913,1.1918,1.1855,1.1855,1.1855,0,1.1701,1.1725,1.1722,1.1741,1.1749,1.1739,1.176,1.1767,1.178,1.1786,1.1777,1.1807,1.1813,1.1841,1.1851,1.1857,1.1863,1.1851,1.1894,1.1898,1.1902,1.1916,1.1921,1.1857,1.1857,1.1856,1.1856,0,1.1745,1.1762,1.1778,1.1792,1.1802,1.1822,1.1822,1.1832,1.1829,1.1831,1.1854,1.1861,1.1875,1.1882,1.1878,1.191,1.1905,1.1895,1.1878,1.1909,1.1922,1.1927,1.1859,1.1858,1.1858,1.1857,0,0,1.1791,1.1804,1.181,1.1817,1.1828,1.1841,1.186,1.1875,1.1885,1.1895,1.1911,1.1932,1.1924,1.1931,1.1929,1.1943,1.1974,1.1931,1.1931,1.1939,1.2011,1.2018,1.2024,1.1969,1.197,1.1971,1.201,0,1.1826,1.1861,1.1859,1.1892,1.1907,1.1899,1.1916,1.1925,1.1927,1.1941,1.1944,1.1959,1.1946,1.1951,1.1965,1.1968,1.1989,1.1965,1.1985,1.1985,1.1983,1.2031,1.2038,1.2075,1.2015,1.2016,1.2017,0,1.1872,1.1885,1.1919,1.1929,1.1935,1.1951,1.1965,1.1978,1.1988,1.1989,1.1998,1.1994,1.2014,1.1997,1.2024,1.2008,1.2016,1.2019,1.2021,1.2022,1.2003,1.2034,1.2086,1.2092,1.2024,1.2024,1.2023,0,1.1903,1.1928,1.1952,1.1958,1.197,1.1981,1.1986,1.1995,1.2005,1.2017,1.2023,1.2038,1.2046,1.2057,1.2056,1.2044,1.2085,1.2067,1.2086,1.2086,1.2095,1.2094,1.2149,1.21,1.21,1.21,1.21,0,1.1943,1.1964,1.1966,1.1981,1.2004,1.2003,1.2026,1.2031,1.2039,1.2054,1.2048,1.2062,1.2061,1.2076,1.2075,1.2099,1.2102,1.2103,1.2103,1.2104,1.2104,1.2109,1.2107,1.2101,1.2101,1.2101,1.21,0,1.198,1.1982,1.2008,1.2018,1.2021,1.2038,1.2046,1.206,1.2062,1.2082,1.2087,1.209,1.2107,1.2108,1.2128,1.2128,1.2156,1.2153,1.2153,1.2152,1.2171,1.217,1.2232,1.224,1.2185,1.2186,1.2186,0,1.2005,1.2022,1.2034,1.2044,1.205,1.2067,1.2077,1.2076,1.2087,1.21,1.2113,1.2129,1.2143,1.2171,1.2175,1.219,1.2187,1.2208,1.2189,1.219,1.2188,1.2187,1.2189,1.2211,1.2212,1.2213,1.2213,0,1.205,1.2051,1.2066,1.2082,1.2094,1.2106,1.2117,1.2126,1.2127,1.2139,1.2157,1.2168,1.2188,1.2205,1.222,1.2225,1.222,1.2219,1.2224,1.2225,1.2225,1.2226,1.2163,1.2217,1.2217,1.2217,1.2216,1.2216,1.2083,1.2097,1.2108,1.2125,1.2134,1.2145,1.2159,1.2164,1.2179,1.2196,1.2195,1.2215,1.2225,1.2245,1.2252,1.2268,1.226,1.2268,1.227,1.2272,1.2274,1.2223,1.227,1.227,1.227,1.227,1.227,0,1.2128,1.2135,1.215,1.2167,1.2181,1.2175,1.2187,1.2199,1.2217,1.2227,1.2241,1.2262,1.2279,1.2285,1.2301,1.2313,1.231,1.2317,1.2316,1.2318,1.2279,1.2273,1.2319,1.2319,1.2319,1.2319,1.2319,1.2319,1.2152,1.2177,1.2179,1.2208,1.2215,1.2235,1.2243,1.2253,1.2262,1.2286,1.23,1.2304,1.2313,1.233,1.2345,1.2347,1.2353,1.2361,1.2361,1.2325,1.232,1.2315,1.231,1.2362,1.2362,1.2398,1.2399,1.2399]},{"header":{"parameterUnit":"m.s-1","parameterCategory":1,"la1":30.2991,"la2":30.254,"lo1":-89.0895,"lo2":-89.0444,"dy":0.0017,"dx":0.0017,"nx":28,"ny":28,"refTime":"2023-11-16T09:00:00:Z","depth":0,"parameterNumber":3,"parameterNumberName":"V-component_of_WINDS"},"data":[0,0,0,0,0,0,0,0,0,0,0,0,0,0,0,0,0,0,0,0,0,0,0,0,0,0,0,0,0,0,0,0,0,0,0,0,0,0,0,0,0,0,0,0,0,0,0,0,0,0,0,0,0,0,0,0,0,0,-3.4563,-3.4564,0,-3.4664,-3.4665,-3.4666,-3.4678,-3.4677,-3.4676,-3.4675,-3.4774,-3.4777,-3.478,0,0,0,0,0,0,0,0,0,0,0,0,0,-3.4377,-3.4381,-3.4562,-3.4564,-3.4565,-3.4663,-3.4665,-3.4666,-3.4678,-3.4677,-3.4676,-3.4675,-3.4772,-3.4777,-3.4781,0,0,0,0,0,0,0,0,0,0,0,0,0,-3.4466,-3.4382,-3.4562,-3.4583,-3.4586,-3.4663,-3.4665,-3.4667,-3.4679,-3.4677,-3.4676,-3.4674,-3.4771,-3.4776,-3.4781,-3.4843,0,0,-3.4797,-3.48,0,0,0,0,0,0,0,0,-3.4461,-3.4473,-3.4579,-3.4582,-3.4585,-3.4657,-3.4636,-3.4725,-3.4679,-3.4643,-3.4675,-3.4674,-3.4736,-3.4744,-3.4766,-3.4848,-3.4852,-3.4798,-3.4801,-3.4803,-3.4805,0,0,0,0,0,0,0,-3.4455,-3.4468,-3.4602,-3.458,-3.4584,-3.4587,-3.4598,-3.4653,-3.4696,-3.4646,-3.4647,-3.466,-3.4737,-3.476,-3.4768,-3.4853,-3.4798,-3.4802,-3.4806,-3.4808,-3.4994,-3.4996,0,0,0,0,0,0,-3.4445,-3.4463,-3.4599,-3.4605,-3.4518,-3.4591,-3.4603,-3.4635,-3.4696,-3.4704,-3.4661,-3.466,-3.4752,-3.4762,-3.4771,-3.485,-3.4803,-3.4808,-3.4811,-3.4992,-3.4994,-3.4996,0,0,0,0,0,0,-3.4441,-3.4457,-3.4595,-3.4535,-3.4553,-3.4596,-3.4632,-3.4638,-3.4662,-3.4707,-3.4714,-3.4677,-3.4751,-3.4764,-3.4826,-3.4853,-3.4811,-3.4815,-3.499,-3.4993,-3.4995,-3.5006,0,0,0,0,0,0,-3.4436,-3.4456,-3.448,-3.4535,-3.4556,-3.4649,-3.4633,-3.4641,-3.4671,-3.4671,-3.4724,-3.4731,-3.4751,-3.4818,-3.4832,-3.486,-3.482,-3.4988,-3.4991,-3.4995,-3.5003,-3.5008,-3.5013,0,0,0,0,0,-3.4429,-3.4477,-3.4481,-3.4498,-3.4587,-3.465,-3.4662,-3.4686,-3.4673,-3.4698,-3.4728,-3.4729,-3.4848,-3.4825,-3.4839,-3.487,-3.4986,-3.499,-3.4994,-3.5001,-3.5007,-3.5013,0,0,0,0,0,0,-3.4421,-3.4484,-3.449,-3.4557,-3.4599,-3.4652,-3.4684,-3.4691,-3.4736,-3.4733,-3.4759,-3.4771,-3.4833,-3.4857,-3.483,-3.4934,-3.4916,-3.4923,-3.4916,-3.4923,-3.4927,-3.492,-3.4824,0,0,0,0,0,-3.4428,-3.4475,-3.4527,-3.4581,-3.4602,-3.464,-3.4668,-3.4683,-3.4727,-3.4744,-3.4777,-3.4818,-3.4865,-3.4895,-3.494,-3.5007,-3.5019,-3.5035,-3.504,-3.5044,-3.505,-3.509,-3.5098,-3.501,-3.501,-3.5009,0,0,-3.444,-3.4481,-3.4509,-3.4581,-3.4615,-3.4663,-3.4654,-3.4704,-3.474,-3.475,-3.4813,-3.4839,-3.4886,-3.4952,-3.4982,-3.4974,-3.5078,-3.5049,-3.5052,-3.5056,-3.5095,-3.5103,-3.511,-3.5012,-3.5012,-3.5011,0,0,-3.4489,-3.4524,-3.4575,-3.461,-3.4663,-3.4688,-3.47,-3.4754,-3.4773,-3.4836,-3.4845,-3.4888,-3.4967,-3.5001,-3.5029,-3.5095,-3.5099,-3.5109,-3.5134,-3.5172,-3.5179,-3.5186,-3.5211,-3.5219,-3.5114,-3.5114,-3.5114,0,-3.4498,-3.4572,-3.4599,-3.4651,-3.4683,-3.4697,-3.4749,-3.4781,-3.4845,-3.4866,-3.4857,-3.496,-3.4992,-3.5067,-3.5084,-3.5105,-3.5121,-3.5102,-3.5177,-3.5183,-3.5189,-3.5214,-3.5223,-3.5115,-3.5115,-3.5115,-3.5115,0,-3.4581,-3.4632,-3.4667,-3.4732,-3.4768,-3.4818,-3.4853,-3.4886,-3.4899,-3.4925,-3.499,-3.5031,-3.5086,-3.5105,-3.5116,-3.5182,-3.5176,-3.5171,-3.5154,-3.5198,-3.5222,-3.5231,-3.5117,-3.5116,-3.5116,-3.5116,0,0,-3.4625,-3.4707,-3.4719,-3.475,-3.4811,-3.4851,-3.4903,-3.496,-3.4989,-3.5033,-3.5078,-3.5147,-3.5144,-3.5176,-3.5191,-3.5225,-3.5277,-3.5216,-3.5218,-3.5228,-3.5355,-3.5359,-3.5369,-3.528,-3.5282,-3.5284,-3.5351,0,-3.4681,-3.4777,-3.4805,-3.4885,-3.4934,-3.495,-3.4996,-3.5038,-3.5065,-3.5109,-3.5138,-3.5187,-3.5179,-3.5199,-3.5233,-3.5263,-3.5303,-3.5259,-3.5322,-3.5324,-3.5311,-3.5381,-3.5384,-3.5446,-3.536,-3.5362,-3.5363,0,-3.4759,-3.4809,-3.4895,-3.4953,-3.4974,-3.5015,-3.5071,-3.5114,-3.5162,-3.5179,-3.5217,-3.5231,-3.5286,-3.5266,-3.5343,-3.5313,-3.5341,-3.536,-3.5363,-3.537,-3.5347,-3.5391,-3.5466,-3.5476,-3.5377,-3.5376,-3.5375,0,-3.4785,-3.4872,-3.4936,-3.4962,-3.503,-3.5059,-3.5089,-3.5137,-3.517,-3.5218,-3.524,-3.5293,-3.5323,-3.5363,-3.5391,-3.5374,-3.5467,-3.5448,-3.5483,-3.5483,-3.5502,-3.55,-3.5584,-3.5518,-3.5518,-3.5518,-3.5518,0,-3.4845,-3.4897,-3.4949,-3.4988,-3.5048,-3.508,-3.5137,-3.5167,-3.5211,-3.5256,-3.5272,-3.5314,-3.5348,-3.5395,-3.5417,-3.5479,-3.5491,-3.5507,-3.5512,-3.5506,-3.5504,-3.5525,-3.5521,-3.552,-3.552,-3.5519,-3.5519,0,-3.4883,-3.492,-3.4991,-3.5051,-3.5068,-3.5109,-3.5161,-3.52,-3.5228,-3.5286,-3.5301,-3.5345,-3.5401,-3.5434,-3.5503,-3.5518,-3.5588,-3.559,-3.5572,-3.5574,-3.5608,-3.5605,-3.5708,-3.5724,-3.5647,-3.5647,-3.5648,0,-3.4919,-3.4961,-3.5027,-3.506,-3.5091,-3.5143,-3.5178,-3.5211,-3.5247,-3.5308,-3.534,-3.5398,-3.5446,-3.5535,-3.5572,-3.5626,-3.5631,-3.5664,-3.5639,-3.5633,-3.5634,-3.5631,-3.5636,-3.5668,-3.5669,-3.5669,-3.567,0,-3.498,-3.4998,-3.5049,-3.5108,-3.515,-3.5197,-3.5244,-3.5269,-3.531,-3.535,-3.5409,-3.5447,-3.552,-3.5578,-3.5636,-3.5666,-3.5675,-3.5677,-3.5689,-3.5683,-3.5671,-3.568,-3.5585,-3.5675,-3.5674,-3.5674,-3.5673,-3.5673,-3.5019,-3.5058,-3.5112,-3.517,-3.5209,-3.5254,-3.5294,-3.5329,-3.538,-3.5444,-3.546,-3.5523,-3.5573,-3.5653,-3.5684,-3.5734,-3.5728,-3.5743,-3.5748,-3.5751,-3.5753,-3.5663,-3.5744,-3.5744,-3.5744,-3.5744,-3.5744,0,-3.5083,-3.512,-3.5172,-3.5239,-3.5285,-3.5292,-3.5345,-3.5382,-3.5438,-3.5485,-3.5534,-3.5603,-3.566,-3.5704,-3.5762,-3.5793,-3.5799,-3.5807,-3.5806,-3.5813,-3.5754,-3.574,-3.5802,-3.5802,-3.5802,-3.5802,-3.5802,-3.5802,-3.5121,-3.5188,-3.5212,-3.53,-3.5336,-3.5399,-3.5429,-3.547,-3.5509,-3.5586,-3.5635,-3.5664,-3.571,-3.5773,-3.5826,-3.5837,-3.5858,-3.5866,-3.5878,-3.5823,-3.5816,-3.581,-3.5797,-3.587,-3.587,-3.5933,-3.5934,-3.5934]}]]